| time (UTC) | temp F | wind direction | speed knots | gust knots | rain 1hr in | rain 24hr in | rain mn in | humidity % | barometer mb |
| 20260506212542 | 63 | 155 | 0.9 | 0.9 | 0.00 | 0.28 | 0.28 | 95 | 1008.8 |
| 20260506212036 | 63 | 221 | 2.6 | 2.6 | 0.00 | 0.28 | 0.28 | 95 | 1009.0 |
| 20260506211532 | 63 | 140 | 1.7 | 1.7 | 0.00 | 0.28 | 0.28 | 95 | 1008.8 |
| 20260506211030 | 63 | 129 | 0.0 | 0.9 | 0.00 | 0.28 | 0.28 | 95 | 1008.9 |
| 20260506210527 | 63 | 165 | 1.7 | 1.7 | 0.00 | 0.28 | 0.28 | 95 | 1008.9 |
| 20260506210024 | 63 | 152 | 1.7 | 2.6 | 0.00 | 0.28 | 0.28 | 95 | 1008.8 |
| 20260506205520 | 63 | 122 | 0.0 | 0.0 | 0.05 | 0.28 | 0.28 | 95 | 1008.8 |
| 20260506205016 | 63 | 146 | 1.7 | 1.7 | 0.05 | 0.28 | 0.28 | 95 | 1008.9 |
| 20260506204514 | 63 | 209 | 1.7 | 1.7 | 0.00 | 0.27 | 0.27 | 95 | 1008.8 |
| 20260506204010 | 63 | 131 | 0.9 | 1.7 | 0.07 | 0.27 | 0.27 | 95 | 1008.7 |
| 20260506203509 | 62 | 113 | 0.0 | 0.0 | 0.07 | 0.27 | 0.27 | 95 | 1009.0 |
| 20260506203004 | 62 | 109 | 0.9 | 0.9 | 0.07 | 0.27 | 0.27 | 95 | 1008.7 |
| 20260506202502 | 62 | 160 | 1.7 | 1.7 | 0.05 | 0.26 | 0.26 | 95 | 1009.0 |
| 20260506201958 | 62 | 151 | 1.7 | 2.6 | 0.05 | 0.26 | 0.26 | 95 | 1008.9 |
| 20260506201456 | 62 | 132 | 0.9 | 0.9 | 0.00 | 0.25 | 0.25 | 95 | 1009.0 |
| 20260506200952 | 62 | 123 | 0.0 | 0.9 | 0.00 | 0.25 | 0.25 | 95 | 1009.1 |
| 20260506200448 | 62 | 146 | 1.7 | 3.5 | 0.07 | 0.25 | 0.25 | 95 | 1009.2 |
| 20260506195944 | 62 | 134 | 0.9 | 0.9 | 0.07 | 0.25 | 0.25 | 95 | 1009.2 |
| 20260506195442 | 62 | 204 | 1.7 | 2.6 | 0.00 | 0.24 | 0.24 | 94 | 1009.5 |
| 20260506194938 | 63 | 262 | 1.7 | 1.7 | 0.00 | 0.24 | 0.24 | 95 | 1009.3 |
| 20260506194436 | 62 | 105 | 0.0 | 0.0 | 0.00 | 0.24 | 0.24 | 95 | 1009.4 |
| 20260506193932 | 63 | 123 | 2.6 | 3.5 | 0.00 | 0.24 | 0.24 | 94 | 1009.3 |
| 20260506193430 | 62 | 273 | 2.6 | 3.5 | 0.05 | 0.24 | 0.24 | 94 | 1009.6 |
| 20260506192926 | 63 | 215 | 1.7 | 1.7 | 0.05 | 0.24 | 0.24 | 94 | 1009.5 |
| 20260506192423 | 62 | 156 | 3.5 | 5.2 | 0.00 | 0.23 | 0.23 | 94 | 1009.5 |
| 20260506191920 | 63 | 205 | 4.3 | 5.2 | 0.07 | 0.23 | 0.23 | 94 | 1009.6 |
| 20260506191416 | 62 | 168 | 1.7 | 2.6 | 0.07 | 0.23 | 0.23 | 94 | 1009.6 |
| 20260506190913 | 62 | 252 | 2.6 | 3.5 | 0.05 | 0.22 | 0.22 | 94 | 1009.8 |
| 20260506190410 | 62 | 165 | 5.2 | 7.0 | 0.12 | 0.22 | 0.22 | 94 | 1009.7 |
| 20260506185907 | 62 | 142 | 0.9 | 0.9 | 0.07 | 0.21 | 0.21 | 94 | 1009.7 |
| 20260506185404 | 62 | 270 | 1.7 | 1.7 | 0.05 | 0.20 | 0.20 | 93 | 1009.8 |
| 20260506184901 | 62 | 153 | 3.5 | 3.5 | 0.05 | 0.20 | 0.20 | 93 | 1010.0 |
| 20260506184358 | 62 | 128 | 0.0 | 0.9 | 0.07 | 0.19 | 0.19 | 93 | 1010.0 |
| 20260506183855 | 62 | 122 | 0.0 | 0.9 | 0.12 | 0.19 | 0.19 | 93 | 1009.9 |
| 20260506183350 | 62 | 159 | 0.9 | 2.6 | 0.05 | 0.18 | 0.18 | 93 | 1009.8 |
| 20260506182848 | 62 | 150 | 1.7 | 1.7 | 0.00 | 0.17 | 0.17 | 93 | 1010.0 |
| 20260506182345 | 62 | 111 | 1.7 | 1.7 | 0.00 | 0.17 | 0.17 | 93 | 1009.9 |
| 20260506181842 | 62 | 126 | 1.7 | 1.7 | 0.00 | 0.17 | 0.17 | 93 | 1009.8 |
| 20260506181340 | 62 | 140 | 2.6 | 3.5 | 0.00 | 0.17 | 0.17 | 92 | 1009.9 |
| 20260506180837 | 62 | 167 | 4.3 | 6.1 | 0.07 | 0.17 | 0.17 | 92 | 1010.0 |
| 20260506180333 | 63 | 162 | 4.3 | 5.2 | 0.07 | 0.17 | 0.17 | 92 | 1010.1 |
| 20260506175829 | 63 | 203 | 5.2 | 6.1 | 0.07 | 0.16 | 0.16 | 92 | 1010.0 |
| 20260506175326 | 63 | 95 | 0.9 | 1.7 | 0.12 | 0.16 | 0.16 | 92 | 1010.1 |
| 20260506174823 | 63 | 173 | 1.7 | 1.7 | 0.05 | 0.15 | 0.15 | 92 | 1010.2 |
| 20260506174321 | 63 | 177 | 1.7 | 2.6 | 0.12 | 0.14 | 0.14 | 92 | 1010.3 |
| 20260506173818 | 63 | 115 | 0.0 | 0.9 | 0.19 | 0.14 | 0.14 | 91 | 1010.3 |
| 20260506173315 | 63 | 128 | 0.0 | 0.0 | 0.07 | 0.12 | 0.12 | 91 | 1010.2 |
| 20260506172812 | 63 | 142 | 2.6 | 3.5 | 0.00 | 0.11 | 0.11 | 91 | 1010.1 |
| 20260506172308 | 63 | 146 | 4.3 | 5.2 | 0.00 | 0.11 | 0.11 | 91 | 1009.9 |
| 20260506171806 | 63 | 155 | 1.7 | 1.7 | 0.00 | 0.11 | 0.11 | 91 | 1009.8 |
| 20260506171303 | 63 | 137 | 1.7 | 1.7 | 0.05 | 0.11 | 0.11 | 90 | 1009.7 |
| 20260506170800 | 63 | 157 | 1.7 | 2.6 | 0.05 | 0.11 | 0.11 | 90 | 1010.0 |
| 20260506170257 | 63 | 175 | 0.0 | 1.7 | 0.00 | 0.10 | 0.10 | 90 | 1010.1 |
| 20260506165755 | 63 | 174 | 3.5 | 3.5 | 0.07 | 0.10 | 0.10 | 89 | 1010.2 |
| 20260506165252 | 63 | 172 | 2.6 | 2.6 | 0.12 | 0.10 | 0.10 | 89 | 1010.4 |
| 20260506164749 | 63 | 156 | 3.5 | 3.5 | 0.12 | 0.09 | 0.09 | 89 | 1010.6 |
| 20260506164246 | 63 | 132 | 1.7 | 2.6 | 0.07 | 0.08 | 0.08 | 88 | 1010.6 |
| 20260506163743 | 63 | 169 | 1.7 | 1.7 | 0.05 | 0.07 | 0.07 | 88 | 1010.8 |
| 20260506163238 | 63 | 182 | 2.6 | 3.5 | 0.12 | 0.07 | 0.07 | 87 | 1011.0 |
| 20260506162734 | 63 | 181 | 6.1 | 7.0 | 0.07 | 0.06 | 0.06 | 87 | 1011.3 |
| 20260506162232 | 64 | 143 | 1.7 | 1.7 | 0.12 | 0.06 | 0.06 | 86 | 1011.4 |
| 20260506161729 | 64 | 162 | 2.6 | 2.6 | 0.05 | 0.05 | 0.05 | 85 | 1011.2 |
| 20260506161226 | 64 | 143 | 1.7 | 1.7 | 0.07 | 0.04 | 0.04 | 85 | 1011.4 |
| 20260506160724 | 64 | 178 | 3.5 | 5.2 | 0.07 | 0.04 | 0.04 | 84 | 1011.5 |
| 20260506160220 | 64 | 169 | 3.5 | 3.5 | 0.07 | 0.03 | 0.03 | 83 | 1011.4 |
| 20260506155719 | 64 | 131 | 1.7 | 1.7 | 0.07 | 0.03 | 0.03 | 82 | 1011.4 |
| 20260506155215 | 65 | 160 | 0.0 | 0.9 | 0.05 | 0.02 | 0.02 | 81 | 1011.3 |
| 20260506153317 | 66 | 114 | 0.0 | 0.9 | 0.00 | 0.00 | 0.00 | 77 | 1011.4 |
| 20260506152814 | 66 | 164 | 0.9 | 1.7 | 0.00 | 0.00 | 0.00 | 76 | 1011.4 |
| 20260506152311 | 66 | 94 | 0.0 | 0.9 | 0.00 | 0.00 | 0.00 | 76 | 1011.2 |
| 20260506151810 | 66 | 167 | 2.6 | 2.6 | 0.00 | 0.00 | 0.00 | 75 | 1011.5 |
| 20260506151306 | 67 | 236 | 1.7 | 2.6 | 0.00 | 0.00 | 0.00 | 74 | 1011.4 |
| 20260506150803 | 67 | 160 | 1.7 | 2.6 | 0.00 | 0.00 | 0.00 | 73 | 1011.4 |
| 20260506150304 | 68 | 129 | 0.9 | 0.9 | 0.00 | 0.00 | 0.00 | 73 | 1011.3 |
| 20260506145757 | 68 | 213 | 1.7 | 3.5 | 0.00 | 0.00 | 0.00 | 72 | 1011.5 |
| 20260506145253 | 68 | 150 | 1.7 | 2.6 | 0.00 | 0.00 | 0.00 | 72 | 1011.4 |
| 20260506144751 | 68 | 178 | 1.7 | 1.7 | 0.00 | 0.00 | 0.00 | 72 | 1011.4 |
| 20260506144248 | 68 | 170 | 2.6 | 3.5 | 0.00 | 0.00 | 0.00 | 72 | 1011.5 |
| 20260506143745 | 68 | 160 | 2.6 | 3.5 | 0.00 | 0.00 | 0.00 | 71 | 1011.6 |
| 20260506143242 | 68 | 178 | 3.5 | 5.2 | 0.00 | 0.00 | 0.00 | 71 | 1011.6 |
| 20260506142741 | 68 | 172 | 1.7 | 1.7 | 0.00 | 0.00 | 0.00 | 71 | 1011.7 |
| 20260506142239 | 68 | 126 | 0.0 | 0.0 | 0.00 | 0.00 | 0.00 | 71 | 1011.6 |
| 20260506141736 | 68 | 166 | 3.5 | 3.5 | 0.00 | 0.00 | 0.00 | 71 | 1011.8 |
| 20260506141235 | 67 | 141 | 0.9 | 0.9 | 0.00 | 0.00 | 0.00 | 72 | 1012.0 |
| 20260506140732 | 67 | 161 | 3.5 | 7.0 | 0.00 | 0.00 | 0.00 | 72 | 1012.1 |
| 20260506140229 | 67 | 76 | 0.9 | 1.7 | 0.00 | 0.00 | 0.00 | 72 | 1011.9 |
| 20260506135725 | 67 | 244 | 3.5 | 6.1 | 0.00 | 0.00 | 0.00 | 72 | 1011.9 |
| 20260506135222 | 67 | 169 | 2.6 | 3.5 | 0.00 | 0.00 | 0.00 | 72 | 1011.7 |
| 20260506134719 | 67 | 171 | 3.5 | 3.5 | 0.00 | 0.00 | 0.00 | 72 | 1011.7 |
| 20260506134215 | 67 | 144 | 4.3 | 6.1 | 0.00 | 0.00 | 0.00 | 72 | 1011.6 |
| 20260506133712 | 67 | 161 | 7.8 | 9.6 | 0.00 | 0.00 | 0.00 | 72 | 1011.7 |
| 20260506133208 | 67 | 158 | 2.6 | 3.5 | 0.00 | 0.00 | 0.00 | 72 | 1011.6 |
| 20260506132706 | 67 | 182 | 6.1 | 7.8 | 0.00 | 0.00 | 0.00 | 73 | 1011.4 |
| 20260506132203 | 67 | 77 | 2.6 | 3.5 | 0.00 | 0.00 | 0.00 | 73 | 1011.4 |
| 20260506131701 | 66 | 145 | 7.0 | 8.7 | 0.00 | 0.00 | 0.00 | 73 | 1011.4 |
| 20260506131156 | 66 | 174 | 7.0 | 7.8 | 0.00 | 0.00 | 0.00 | 73 | 1011.2 |
| 20260506130653 | 66 | 173 | 3.5 | 3.5 | 0.00 | 0.00 | 0.00 | 73 | 1011.3 |
| 20260506130151 | 66 | 168 | 4.3 | 5.2 | 0.00 | 0.00 | 0.00 | 73 | 1011.2 |
| 20260506125649 | 66 | 178 | 5.2 | 6.1 | 0.00 | 0.00 | 0.00 | 73 | 1011.5 |
| 20260506125146 | 66 | 148 | 4.3 | 6.1 | 0.00 | 0.00 | 0.00 | 74 | 1011.3 |
| 20260506124645 | 66 | 181 | 4.3 | 5.2 | 0.00 | 0.00 | 0.00 | 74 | 1011.5 |
| 20260506124142 | 66 | 161 | 4.3 | 6.1 | 0.00 | 0.00 | 0.00 | 74 | 1011.6 |
| 20260506123639 | 66 | 163 | 2.6 | 5.2 | 0.00 | 0.00 | 0.00 | 74 | 1011.6 |
| 20260506123138 | 66 | 154 | 4.3 | 6.1 | 0.00 | 0.00 | 0.00 | 74 | 1011.7 |
| 20260506122634 | 66 | 191 | 4.3 | 6.1 | 0.00 | 0.00 | 0.00 | 74 | 1011.6 |
| 20260506122132 | 66 | 139 | 2.6 | 2.6 | 0.00 | 0.00 | 0.00 | 74 | 1011.7 |
| 20260506121629 | 66 | 179 | 6.1 | 7.0 | 0.00 | 0.00 | 0.00 | 74 | 1011.5 |
| 20260506121125 | 66 | 126 | 3.5 | 5.2 | 0.00 | 0.00 | 0.00 | 74 | 1011.6 |
| 20260506120624 | 65 | 186 | 3.5 | 5.2 | 0.00 | 0.00 | 0.00 | 75 | 1011.7 |
| 20260506120121 | 65 | 158 | 5.2 | 6.1 | 0.00 | 0.00 | 0.00 | 74 | 1012.1 |
| 20260506115619 | 65 | 163 | 2.6 | 2.6 | 0.00 | 0.00 | 0.00 | 74 | 1012.0 |
| 20260506115117 | 65 | 200 | 7.0 | 7.8 | 0.00 | 0.00 | 0.00 | 74 | 1011.6 |
| 20260506114614 | 65 | 166 | 4.3 | 5.2 | 0.00 | 0.00 | 0.00 | 74 | 1011.6 |
| 20260506114112 | 65 | 153 | 5.2 | 6.1 | 0.00 | 0.00 | 0.00 | 74 | 1011.6 |
| 20260506113610 | 65 | 173 | 5.2 | 6.1 | 0.00 | 0.00 | 0.00 | 75 | 1011.4 |
| 20260506113107 | 65 | 166 | 2.6 | 2.6 | 0.00 | 0.00 | 0.00 | 75 | 1011.6 |
| 20260506112603 | 65 | 173 | 5.2 | 6.1 | 0.00 | 0.00 | 0.00 | 75 | 1011.5 |
| 20260506112101 | 65 | 108 | 0.9 | 0.9 | 0.00 | 0.00 | 0.00 | 75 | 1011.5 |
| 20260506111558 | 65 | 151 | 5.2 | 7.0 | 0.00 | 0.00 | 0.00 | 74 | 1011.4 |
| 20260506111055 | 65 | 137 | 2.6 | 2.6 | 0.00 | 0.00 | 0.00 | 75 | 1011.5 |
| 20260506110553 | 64 | 134 | 7.0 | 7.8 | 0.00 | 0.00 | 0.00 | 75 | 1011.3 |
| 20260506110050 | 64 | 158 | 7.8 | 8.7 | 0.00 | 0.00 | 0.00 | 75 | 1011.5 |
| 20260506105546 | 64 | 151 | 3.5 | 5.2 | 0.00 | 0.00 | 0.00 | 75 | 1011.7 |
| 20260506105044 | 64 | 188 | 5.2 | 6.1 | 0.00 | 0.00 | 0.00 | 75 | 1011.7 |
| 20260506104542 | 64 | 154 | 2.6 | 3.5 | 0.00 | 0.00 | 0.00 | 74 | 1011.6 |
| 20260506104039 | 64 | 177 | 3.5 | 5.2 | 0.00 | 0.00 | 0.00 | 74 | 1011.4 |
| 20260506103536 | 64 | 144 | 4.3 | 6.1 | 0.00 | 0.00 | 0.00 | 74 | 1011.3 |
| 20260506103033 | 64 | 164 | 6.1 | 7.8 | 0.00 | 0.00 | 0.00 | 74 | 1011.4 |
| 20260506102531 | 64 | 163 | 3.5 | 6.1 | 0.00 | 0.00 | 0.00 | 73 | 1011.5 |
| 20260506102028 | 64 | 155 | 3.5 | 3.5 | 0.00 | 0.00 | 0.00 | 73 | 1011.6 |
| 20260506101525 | 64 | 179 | 4.3 | 6.1 | 0.00 | 0.00 | 0.00 | 73 | 1011.4 |
| 20260506101022 | 64 | 140 | 2.6 | 2.6 | 0.00 | 0.00 | 0.00 | 72 | 1011.2 |
| 20260506100520 | 64 | 172 | 3.5 | 3.5 | 0.00 | 0.00 | 0.00 | 72 | 1011.2 |
| 20260506100018 | 64 | 154 | 3.5 | 3.5 | 0.00 | 0.00 | 0.00 | 71 | 1011.1 |
| 20260506095517 | 65 | 148 | 3.5 | 3.5 | 0.00 | 0.00 | 0.00 | 71 | 1011.2 |
| 20260506095012 | 65 | 173 | 3.5 | 5.2 | 0.00 | 0.00 | 0.00 | 71 | 1011.3 |
| 20260506094510 | 65 | 108 | 1.7 | 2.6 | 0.00 | 0.00 | 0.00 | 70 | 1011.3 |
| 20260506094008 | 65 | 196 | 5.2 | 7.0 | 0.00 | 0.00 | 0.00 | 70 | 1011.3 |
| 20260506093506 | 65 | 225 | 1.7 | 1.7 | 0.00 | 0.00 | 0.00 | 69 | 1011.2 |
| 20260506093004 | 66 | 148 | 1.7 | 2.6 | 0.00 | 0.00 | 0.00 | 69 | 1011.2 |
| 20260506092501 | 66 | 193 | 1.7 | 3.5 | 0.00 | 0.00 | 0.00 | 69 | 1011.0 |
| 20260506091957 | 66 | 147 | 2.6 | 2.6 | 0.00 | 0.00 | 0.00 | 68 | 1011.0 |
| 20260506091456 | 66 | 178 | 4.3 | 6.1 | 0.00 | 0.00 | 0.00 | 68 | 1011.0 |
| 20260506090953 | 66 | 173 | 5.2 | 6.1 | 0.00 | 0.00 | 0.00 | 68 | 1011.0 |
| 20260506090451 | 66 | 175 | 5.2 | 6.1 | 0.00 | 0.00 | 0.00 | 67 | 1011.2 |
| 20260506085946 | 66 | 175 | 3.5 | 5.2 | 0.00 | 0.00 | 0.00 | 67 | 1011.2 |
| 20260506085444 | 66 | 126 | 0.9 | 0.9 | 0.00 | 0.00 | 0.00 | 67 | 1011.3 |
| 20260506084940 | 66 | 152 | 4.3 | 5.2 | 0.00 | 0.00 | 0.00 | 66 | 1011.2 |
| 20260506084437 | 66 | 145 | 5.2 | 7.0 | 0.00 | 0.00 | 0.00 | 66 | 1011.3 |
| 20260506083933 | 66 | 180 | 5.2 | 7.0 | 0.00 | 0.00 | 0.00 | 65 | 1011.3 |
| 20260506083430 | 66 | 160 | 4.3 | 6.1 | 0.00 | 0.00 | 0.00 | 65 | 1011.4 |
| 20260506082928 | 66 | 160 | 2.6 | 3.5 | 0.00 | 0.00 | 0.00 | 65 | 1011.3 |
| 20260506082425 | 67 | 149 | 2.6 | 3.5 | 0.00 | 0.00 | 0.00 | 65 | 1011.4 |
| 20260506081920 | 66 | 137 | 4.3 | 5.2 | 0.00 | 0.00 | 0.00 | 65 | 1011.4 |
| 20260506081419 | 67 | 163 | 1.7 | 1.7 | 0.00 | 0.00 | 0.00 | 64 | 1011.3 |
| 20260506080916 | 67 | 157 | 2.6 | 2.6 | 0.00 | 0.00 | 0.00 | 64 | 1011.5 |
| 20260506080412 | 67 | 202 | 2.6 | 3.5 | 0.00 | 0.00 | 0.00 | 64 | 1011.4 |
| 20260506073356 | 67 | 143 | 1.7 | 2.6 | 0.00 | 0.00 | 0.00 | 62 | 1011.5 |
| 20260506072853 | 67 | 166 | 2.6 | 2.6 | 0.00 | 0.00 | 0.00 | 61 | 1011.5 |
| 20260506072351 | 67 | 144 | 1.7 | 2.6 | 0.00 | 0.00 | 0.00 | 61 | 1011.3 |
| 20260506071848 | 68 | 176 | 1.7 | 1.7 | 0.00 | 0.00 | 0.00 | 60 | 1011.3 |
| 20260506071346 | 68 | 178 | 2.6 | 3.5 | 0.00 | 0.00 | 0.00 | 60 | 1011.5 |
| 20260506070843 | 68 | 140 | 0.9 | 0.9 | 0.00 | 0.00 | 0.00 | 60 | 1011.5 |
| 20260506070340 | 68 | 126 | 0.0 | 0.0 | 0.00 | 0.00 | 0.00 | 60 | 1011.6 |
| 20260506062317 | 68 | 127 | 0.9 | 0.9 | 0.00 | 0.00 | 0.00 | 59 | 1011.8 |
| 20260506061813 | 69 | 163 | 0.9 | 0.9 | 0.00 | 0.00 | 0.00 | 58 | 1011.7 |
| 20260506061310 | 69 | 129 | 1.7 | 1.7 | 0.00 | 0.00 | 0.00 | 58 | 1011.6 |
| 20260506060808 | 69 | 153 | 0.9 | 1.7 | 0.00 | 0.00 | 0.00 | 58 | 1011.7 |
| 20260506060306 | 69 | 158 | 2.6 | 5.2 | 0.00 | 0.00 | 0.00 | 58 | 1011.6 |
| 20260506051237 | 70 | 175 | 3.5 | 5.2 | 0.00 | 0.00 | 0.00 | 55 | 1012.0 |
| 20260506050735 | 70 | 169 | 2.6 | 2.6 | 0.00 | 0.00 | 0.00 | 55 | 1012.1 |
| 20260506050232 | 70 | 162 | 0.9 | 1.7 | 0.00 | 0.00 | 0.00 | 54 | 1012.1 |
| 20260506044723 | 70 | 174 | 6.1 | 7.8 | 0.00 | 0.00 | 0.00 | 54 | 1012.1 |
| 20260506044220 | 70 | 131 | 0.0 | 0.9 | 0.00 | 0.00 | 0.00 | 54 | 1012.1 |
| 20260506043718 | 71 | 150 | 3.5 | 5.2 | 0.00 | 0.00 | 0.00 | 53 | 1012.1 |
| 20260506043215 | 71 | 160 | 4.3 | 5.2 | 0.00 | 0.00 | 0.00 | 53 | 1012.2 |
| 20260506042714 | 71 | 157 | 3.5 | 5.2 | 0.00 | 0.00 | 0.00 | 52 | 1012.2 |
| 20260506042212 | 71 | 168 | 5.2 | 6.1 | 0.00 | 0.00 | 0.00 | 52 | 1012.0 |
| 20260506041710 | 71 | 158 | 6.1 | 7.0 | 0.00 | 0.00 | 0.00 | 52 | 1012.0 |
| 20260506041207 | 71 | 151 | 1.7 | 3.5 | 0.00 | 0.00 | 0.00 | 52 | 1011.9 |
| 20260506040704 | 71 | 208 | 3.5 | 6.1 | 0.00 | 0.00 | 0.00 | 52 | 1012.0 |
| 20260506040201 | 70 | 158 | 2.6 | 3.5 | 0.00 | 0.00 | 0.00 | 53 | 1012.0 |
| 20260506035658 | 70 | 167 | 1.7 | 2.6 | 0.00 | 0.00 | 0.00 | 53 | 1012.0 |
| 20260506035155 | 70 | 159 | 3.5 | 5.2 | 0.00 | 0.00 | 0.00 | 53 | 1012.0 |
| 20260506034651 | 70 | 174 | 5.2 | 6.1 | 0.00 | 0.00 | 0.00 | 53 | 1012.0 |
| 20260506034149 | 70 | 137 | 4.3 | 6.1 | 0.00 | 0.00 | 0.00 | 52 | 1011.9 |
| 20260506033646 | 70 | 163 | 3.5 | 5.2 | 0.00 | 0.00 | 0.00 | 52 | 1012.0 |
| 20260506033143 | 71 | 175 | 3.5 | 5.2 | 0.00 | 0.00 | 0.00 | 51 | 1012.2 |
| 20260506032640 | 71 | 179 | 3.5 | 5.2 | 0.00 | 0.00 | 0.00 | 50 | 1011.9 |
| 20260506032137 | 72 | 143 | 2.6 | 3.5 | 0.00 | 0.00 | 0.00 | 49 | 1011.9 |
| 20260506031634 | 72 | 180 | 5.2 | 7.0 | 0.00 | 0.00 | 0.00 | 48 | 1011.7 |
| 20260506031130 | 73 | 187 | 3.5 | 3.5 | 0.00 | 0.00 | 0.00 | 46 | 1011.8 |
| 20260506030629 | 74 | 178 | 3.5 | 5.2 | 0.00 | 0.00 | 0.00 | 45 | 1012.0 |
| 20260506030126 | 74 | 108 | 0.9 | 0.9 | 0.00 | 0.00 | 0.00 | 43 | 1011.6 |
| 20260506025623 | 75 | 177 | 4.3 | 6.1 | 0.00 | 0.00 | 0.00 | 43 | 1011.8 |
| 20260506025119 | 75 | 166 | 3.5 | 3.5 | 0.00 | 0.00 | 0.00 | 42 | 1011.7 |
| 20260506024617 | 75 | 150 | 2.6 | 2.6 | 0.00 | 0.00 | 0.00 | 42 | 1011.7 |
| 20260506024112 | 76 | 215 | 4.3 | 6.1 | 0.00 | 0.00 | 0.00 | 42 | 1011.6 |
| 20260506023609 | 75 | 247 | 1.7 | 1.7 | 0.00 | 0.00 | 0.00 | 42 | 1011.8 |
| 20260506023106 | 76 | 212 | 2.6 | 3.5 | 0.00 | 0.00 | 0.00 | 42 | 1011.6 |
| 20260506022604 | 75 | 254 | 1.7 | 2.6 | 0.00 | 0.00 | 0.00 | 41 | 1011.4 |
| 20260506022101 | 76 | 149 | 2.6 | 2.6 | 0.00 | 0.00 | 0.00 | 41 | 1011.6 |
| 20260506021559 | 76 | 107 | 4.3 | 7.0 | 0.00 | 0.00 | 0.00 | 40 | 1011.4 |
| 20260506021055 | 76 | 171 | 1.7 | 2.6 | 0.00 | 0.00 | 0.00 | 39 | 1011.4 |
| 20260506020553 | 76 | 129 | 0.9 | 0.9 | 0.00 | 0.00 | 0.00 | 38 | 1011.4 |
| 20260506020050 | 76 | 221 | 2.6 | 3.5 | 0.00 | 0.00 | 0.00 | 38 | 1011.4 |
| 20260506015548 | 76 | 146 | 0.9 | 0.9 | 0.00 | 0.00 | 0.00 | 38 | 1011.5 |
| 20260506015044 | 76 | 172 | 6.1 | 8.7 | 0.00 | 0.00 | 0.00 | 38 | 1011.5 |
| 20260506014542 | 77 | 141 | 3.5 | 3.5 | 0.00 | 0.00 | 0.00 | 37 | 1011.1 |
| 20260506014037 | 77 | 120 | 2.6 | 2.6 | 0.00 | 0.00 | 0.00 | 37 | 1011.4 |
| 20260506013536 | 77 | 145 | 3.5 | 5.2 | 0.00 | 0.00 | 0.00 | 37 | 1011.2 |
| 20260506013032 | 77 | 117 | 2.6 | 2.6 | 0.00 | 0.00 | 0.00 | 37 | 1011.2 |
| 20260506012528 | 77 | 202 | 3.5 | 5.2 | 0.00 | 0.00 | 0.00 | 37 | 1011.2 |
| 20260506012025 | 77 | 109 | 0.0 | 0.9 | 0.00 | 0.00 | 0.00 | 37 | 1011.2 |
| 20260506011523 | 77 | 199 | 5.2 | 7.0 | 0.00 | 0.00 | 0.00 | 36 | 1011.0 |
| 20260506011019 | 77 | 157 | 2.6 | 2.6 | 0.00 | 0.00 | 0.00 | 36 | 1011.1 |
| 20260506010514 | 77 | 144 | 3.5 | 6.1 | 0.00 | 0.00 | 0.00 | 36 | 1011.0 |
| 20260506010009 | 77 | 156 | 1.7 | 1.7 | 0.00 | 0.00 | 0.00 | 36 | 1010.9 |
| 20260506005507 | 77 | 145 | 2.6 | 2.6 | 0.00 | 0.00 | 0.00 | 35 | 1011.0 |
| 20260506005002 | 77 | 182 | 5.2 | 6.1 | 0.00 | 0.00 | 0.00 | 36 | 1010.7 |
| 20260506004500 | 77 | 156 | 3.5 | 5.2 | 0.00 | 0.00 | 0.00 | 36 | 1010.8 |
| 20260506003956 | 77 | 173 | 1.7 | 1.7 | 0.00 | 0.00 | 0.00 | 36 | 1010.8 |
| 20260506003453 | 77 | 136 | 0.9 | 1.7 | 0.00 | 0.00 | 0.00 | 36 | 1010.6 |
| 20260506002949 | 77 | 124 | 0.9 | 0.9 | 0.00 | 0.00 | 0.00 | 37 | 1010.7 |
| 20260506002445 | 77 | 183 | 4.3 | 5.2 | 0.00 | 0.00 | 0.00 | 36 | 1010.5 |
| 20260506001941 | 77 | 171 | 3.5 | 3.5 | 0.00 | 0.00 | 0.00 | 36 | 1010.5 |
| 20260506001438 | 77 | 192 | 4.3 | 6.1 | 0.00 | 0.00 | 0.00 | 36 | 1010.6 |
| 20260506000935 | 77 | 147 | 2.6 | 2.6 | 0.00 | 0.00 | 0.00 | 36 | 1010.5 |
| 20260506000433 | 77 | 228 | 4.3 | 5.2 | 0.00 | 0.00 | 0.00 | 36 | 1010.6 |
| 20260505235929 | 77 | 199 | 6.1 | 9.6 | 0.00 | 0.00 | 0.00 | 36 | 1010.4 |
| 20260505235427 | 78 | 143 | 0.9 | 0.9 | 0.00 | 0.00 | 0.00 | 36 | 1010.3 |
| 20260505234923 | 78 | 224 | 1.7 | 1.7 | 0.00 | 0.00 | 0.00 | 36 | 1010.2 |
| 20260505234422 | 78 | 144 | 3.5 | 5.2 | 0.00 | 0.00 | 0.00 | 35 | 1010.2 |
| 20260505233918 | 78 | 171 | 4.3 | 6.1 | 0.00 | 0.00 | 0.00 | 35 | 1010.2 |
| 20260505233416 | 79 | 277 | 4.3 | 6.1 | 0.00 | 0.00 | 0.00 | 35 | 1009.9 |
| 20260505232913 | 79 | 227 | 5.2 | 6.1 | 0.00 | 0.00 | 0.00 | 34 | 1010.1 |
| 20260505232411 | 79 | 142 | 4.3 | 5.2 | 0.00 | 0.00 | 0.00 | 34 | 1009.9 |
| 20260505231907 | 79 | 202 | 3.5 | 5.2 | 0.00 | 0.00 | 0.00 | 34 | 1009.8 |
| 20260505231405 | 79 | 164 | 1.7 | 1.7 | 0.00 | 0.00 | 0.00 | 34 | 1009.9 |
| 20260505230903 | 79 | 201 | 1.7 | 3.5 | 0.00 | 0.00 | 0.00 | 34 | 1009.7 |
| 20260505230400 | 79 | 247 | 4.3 | 6.1 | 0.00 | 0.00 | 0.00 | 34 | 1009.8 |
| 20260505225856 | 80 | 307 | 1.7 | 1.7 | 0.00 | 0.00 | 0.00 | 34 | 1009.9 |
| 20260505225354 | 80 | 254 | 5.2 | 7.8 | 0.00 | 0.00 | 0.00 | 33 | 1009.5 |
| 20260505224849 | 80 | 232 | 2.6 | 3.5 | 0.00 | 0.00 | 0.00 | 34 | 1009.5 |
| 20260505224347 | 80 | 181 | 1.7 | 2.6 | 0.00 | 0.00 | 0.00 | 35 | 1009.3 |
| 20260505223844 | 80 | 357 | 2.6 | 2.6 | 0.00 | 0.00 | 0.00 | 34 | 1009.3 |
| 20260505223341 | 80 | 238 | 3.5 | 3.5 | 0.00 | 0.00 | 0.00 | 34 | 1009.5 |
| 20260505222836 | 80 | 216 | 3.5 | 3.5 | 0.00 | 0.00 | 0.00 | 34 | 1009.3 |
| 20260505222333 | 80 | 234 | 5.2 | 7.8 | 0.00 | 0.00 | 0.00 | 33 | 1009.2 |
| 20260505221830 | 80 | 176 | 5.2 | 7.0 | 0.00 | 0.00 | 0.00 | 34 | 1009.1 |
| 20260505221327 | 80 | 232 | 2.6 | 2.6 | 0.00 | 0.00 | 0.00 | 35 | 1009.2 |
| 20260505220824 | 80 | 189 | 2.6 | 2.6 | 0.00 | 0.00 | 0.00 | 34 | 1009.0 |
| 20260505220321 | 80 | 149 | 4.3 | 6.1 | 0.00 | 0.00 | 0.00 | 34 | 1009.0 |
| 20260505215819 | 80 | 143 | 3.5 | 5.2 | 0.00 | 0.00 | 0.00 | 35 | 1008.8 |
| 20260505215316 | 81 | 256 | 6.1 | 9.6 | 0.00 | 0.00 | 0.00 | 34 | 1008.9 |
| 20260505214814 | 81 | 214 | 6.1 | 8.7 | 0.00 | 0.00 | 0.00 | 34 | 1008.9 |
| 20260505214311 | 82 | 168 | 2.6 | 3.5 | 0.00 | 0.00 | 0.00 | 34 | 1008.8 |
| 20260505213808 | 82 | 259 | 3.5 | 5.2 | 0.00 | 0.00 | 0.00 | 34 | 1008.9 |
| 20260505213306 | 81 | 174 | 1.7 | 2.6 | 0.00 | 0.00 | 0.00 | 34 | 1008.8 |